This is the latest recevied weather packets stored in our database for station/object K6CED. If no packets are shown the sender has not sent any weather packets the latest 10 day(s).
| Time | Temp. | Humidity | Pressure | Rain* | Wind** | Luminosity | Snow |
|---|---|---|---|---|---|---|---|
| 1788552275 | 27.78° C | 39% | 1015.5 hPa | 0 mm | - | 734 W/m² | - |
| 1788551970 | 27.78° C | 39% | 1015.6 hPa | 0 mm | - | 730 W/m² | - |
| 1788551667 | 27.78° C | 39% | 1015.6 hPa | 0 mm | - | 728 W/m² | - |
| 1788551361 | 27.78° C | 38% | 1015.6 hPa | 0 mm | - | 728 W/m² | - |
| 1788551056 | 27.22° C | 40% | 1015.9 hPa | 0 mm | - | 731 W/m² | - |
| 1788550751 | 26.11° C | 40% | 1016.1 hPa | 0 mm | - | 734 W/m² | - |
| 1788550447 | 27.22° C | 41% | 1015.9 hPa | 0 mm | - | 740 W/m² | - |
| 1788550142 | 27.22° C | 41% | 1016 hPa | 0 mm | - | 750 W/m² | - |
| 1788549837 | 26.11° C | 43% | 1015.9 hPa | 0 mm | - | 757 W/m² | - |
| 1788549544 | 27.22° C | 43% | 1016.1 hPa | 0 mm | - | 763 W/m² | - |
| 1788549230 | 25.56° C | 46% | 1016.3 hPa | 0 mm | - | 766 W/m² | - |
| 1788548926 | 26.67° C | 44% | 1016.3 hPa | 0 mm | - | 766 W/m² | - |
| 1788548621 | 25.56° C | 47% | 1016.4 hPa | 0 mm | - | 764 W/m² | - |
| 1788548318 | 26.11° C | 47% | 1016.4 hPa | 0 mm | - | 764 W/m² | - |
| 1788548013 | 26.11° C | 47% | 1016.5 hPa | 0 mm | - | 761 W/m² | - |
| 1788547712 | 25° C | 49% | 1016.4 hPa | 0 mm | - | 757 W/m² | - |
| 1788547408 | 25° C | 49% | 1016.4 hPa | 0 mm | - | 757 W/m² | - |
| 1788547103 | 25° C | 50% | 1016.7 hPa | 0 mm | - | 760 W/m² | - |
| 1788546798 | 25° C | 49% | 1016.6 hPa | 0 mm | - | 764 W/m² | - |
| 1788546494 | 24.44° C | 50% | 1016.6 hPa | 0 mm | - | 768 W/m² | - |
| 1788546189 | 23.89° C | 51% | 1016.7 hPa | 0 mm | - | 773 W/m² | - |
| 1788545884 | 24.44° C | 50% | 1016.7 hPa | 0 mm | - | 776 W/m² | - |
| 1788545583 | 23.89° C | 53% | 1016.7 hPa | 0 mm | - | 774 W/m² | - |
| 1788545279 | 23.33° C | 55% | 1016.6 hPa | 0 mm | - | 770 W/m² | - |
| 1788544974 | 23.33° C | 57% | 1016.9 hPa | 0 mm | - | 764 W/m² | - |
* Rain latest hour (hover to see other rain measurements)
** Current wind speed in m/s (hover to see current wind gust speed)